Terminal Aerodrome Forecast
Issued by NWS

Home | Current Version | Previous Version | Text Only | Print | Product List | Glossary On
Versions: 1 2 3 4 5 6 7 8 9 10 11 12 13 14 15 16 17 18 19 20 21
000
FTUS41 KGYX 280500
TAFAUG
TAF
KAUG 280534Z 2806/2906 00000KT 1/4SM FG VV002
     FM281500 14008KT 5SM -SHRA BR OVC005
     FM281700 13007KT 2SM SHRA OVC010
     FM290100 20007KT P6SM -SHRA BKN018 OVC030
     FM290500 20006KT P6SM BKN040=

USA.gov is the U.S. government's official web portal to all federal, state and local government web resources and services.